Location: Bun Machan
(52.1403°N, 7.3744°W)
Time: 08:39:57
(UTC+00:00)

Meteor 1-4 Rocket - Pass Details

Date: 14 July 2020
Orbit: 449 x 502 km, 81.2° (Epoch: 05 August)

Event Time Altitude Azimuth Distance (km) Brightness Sun altitude
Rises 00:13:33 0° 355° (N) 2,598 8.1 -16.1°
Reaches altitude 10° 00:15:58 10° 9° (N) 1,702 6.6 -16.1°
Maximum altitude 00:19:07 25° 67° (ENE) 1,017 4.4 -16.1°
Enters shadow 00:21:23 15° 116° (ESE) 1,402 4.6 -16.2°
